[[{"header":{"parameterUnit":"m.s-1","parameterCategory":1,"la1":30.2991,"la2":30.254,"lo1":-89.0895,"lo2":-89.0444,"dy":0.0017,"dx":0.0017,"nx":28,"ny":28,"refTime":"2024-10-10T03:00:00:Z","depth":0,"parameterNumber":2,"parameterNumberName":"U-component_of_WINDS"},"data":[0,0,0,0,0,0,0,0,0,0,0,0,0,0,0,0,0,0,0,0,0,0,0,0,0,0,0,0,0,0,0,0,0,0,0,0,0,0,0,0,0,0,0,0,0,0,0,0,0,0,0,0,0,0,0,0,0,0,-0.4957,-0.4956,0,-0.4892,-0.4891,-0.489,-0.4855,-0.4855,-0.4855,-0.4855,-0.4787,-0.4785,-0.4784,0,0,0,0,0,0,0,0,0,0,0,0,0,-0.505,-0.5048,-0.4957,-0.4956,-0.4955,-0.4892,-0.4891,-0.489,-0.4855,-0.4855,-0.4855,-0.4855,-0.4788,-0.4786,-0.4784,0,0,0,0,0,0,0,0,0,0,0,0,0,-0.4999,-0.5048,-0.4957,-0.4931,-0.4928,-0.4892,-0.4891,-0.489,-0.4855,-0.4855,-0.4855,-0.4855,-0.4788,-0.4786,-0.4783,-0.4769,0,0,-0.4775,-0.4774,0,0,0,0,0,0,0,0,-0.5002,-0.4996,-0.4935,-0.4932,-0.4929,-0.4882,-0.4898,-0.4849,-0.4855,-0.4883,-0.4855,-0.4855,-0.4819,-0.4813,-0.4801,-0.4766,-0.4763,-0.4775,-0.4773,-0.4772,-0.4771,0,0,0,0,0,0,0,-0.5006,-0.4999,-0.4931,-0.4934,-0.4931,-0.4921,-0.4914,-0.4889,-0.4852,-0.488,-0.4878,-0.4871,-0.4817,-0.4804,-0.4799,-0.4762,-0.4775,-0.4773,-0.4771,-0.477,-0.4709,-0.4709,0,0,0,0,0,0,-0.5014,-0.5002,-0.4933,-0.4929,-0.4966,-0.492,-0.4911,-0.4897,-0.4852,-0.4845,-0.4871,-0.4869,-0.4809,-0.4803,-0.4797,-0.4776,-0.4772,-0.477,-0.4768,-0.4709,-0.4709,-0.4709,0,0,0,0,0,0,-0.5016,-0.5008,-0.4936,-0.4965,-0.4955,-0.4918,-0.4902,-0.4896,-0.4883,-0.4845,-0.4838,-0.4865,-0.4808,-0.4801,-0.4776,-0.4773,-0.4769,-0.4766,-0.4709,-0.4709,-0.4709,-0.4735,0,0,0,0,0,0,-0.5019,-0.5009,-0.5004,-0.4965,-0.4953,-0.4916,-0.4902,-0.4894,-0.4878,-0.4876,-0.4837,-0.4831,-0.4808,-0.478,-0.4773,-0.4769,-0.4764,-0.4709,-0.4709,-0.4709,-0.4734,-0.4735,-0.4737,0,0,0,0,0,-0.5022,-0.5014,-0.5004,-0.4996,-0.4946,-0.4916,-0.491,-0.4884,-0.4878,-0.4872,-0.4848,-0.4832,-0.4775,-0.4778,-0.477,-0.4765,-0.4709,-0.4709,-0.4709,-0.4733,-0.4735,-0.4737,0,0,0,0,0,0,-0.5053,-0.5008,-0.4997,-0.4975,-0.495,-0.4911,-0.4902,-0.4887,-0.4862,-0.4861,-0.4829,-0.482,-0.4798,-0.4779,-0.4783,-0.4748,-0.474,-0.4738,-0.4761,-0.4763,-0.4764,-0.4769,-0.4762,0,0,0,0,0,-0.5058,-0.5038,-0.4999,-0.4984,-0.4972,-0.4939,-0.4926,-0.4908,-0.488,-0.4869,-0.4842,-0.4816,-0.4791,-0.4776,-0.4752,-0.4731,-0.4721,-0.4724,-0.4725,-0.4727,-0.4726,-0.4712,-0.4712,-0.4708,-0.4708,-0.4708,0,0,-0.5067,-0.504,-0.5029,-0.499,-0.4968,-0.4947,-0.4931,-0.491,-0.4894,-0.4865,-0.484,-0.482,-0.4788,-0.4764,-0.4753,-0.4748,-0.4724,-0.4727,-0.4728,-0.4726,-0.4712,-0.4712,-0.4712,-0.4708,-0.4708,-0.4708,0,0,-0.5072,-0.505,-0.5035,-0.5013,-0.498,-0.4958,-0.4954,-0.4917,-0.4902,-0.4876,-0.4854,-0.4834,-0.4794,-0.4771,-0.4755,-0.475,-0.4734,-0.4743,-0.4751,-0.4738,-0.4738,-0.4738,-0.4736,-0.4736,-0.4742,-0.4742,-0.4742,0,-0.5087,-0.5056,-0.5029,-0.5009,-0.4991,-0.4965,-0.4948,-0.4928,-0.4889,-0.4877,-0.4872,-0.482,-0.4796,-0.4767,-0.4766,-0.4753,-0.4747,-0.4747,-0.4741,-0.474,-0.474,-0.4737,-0.4737,-0.4743,-0.4743,-0.4743,-0.4743,0,-0.5076,-0.5054,-0.5045,-0.5008,-0.499,-0.4972,-0.4941,-0.4925,-0.4909,-0.4887,-0.486,-0.4831,-0.48,-0.4791,-0.4775,-0.4759,-0.4757,-0.4747,-0.4738,-0.4742,-0.4739,-0.4738,-0.4745,-0.4745,-0.4744,-0.4744,0,0,-0.51,-0.5047,-0.5044,-0.5026,-0.4987,-0.497,-0.495,-0.4919,-0.4906,-0.488,-0.4861,-0.4827,-0.4817,-0.4798,-0.4779,-0.4767,-0.4764,-0.4758,-0.4757,-0.476,-0.4744,-0.4752,-0.4751,-0.4754,-0.4753,-0.4753,-0.4746,0,-0.5099,-0.5063,-0.5037,-0.501,-0.4989,-0.4963,-0.4945,-0.4919,-0.4898,-0.4876,-0.4852,-0.4828,-0.4817,-0.4805,-0.4793,-0.4767,-0.4761,-0.4768,-0.4736,-0.4735,-0.4744,-0.4749,-0.4758,-0.4753,-0.4745,-0.4745,-0.4745,0,-0.5094,-0.5068,-0.5039,-0.5002,-0.4992,-0.4977,-0.4946,-0.4926,-0.4895,-0.488,-0.4859,-0.4839,-0.4815,-0.4809,-0.4776,-0.4781,-0.4766,-0.4751,-0.475,-0.4746,-0.474,-0.4745,-0.4751,-0.475,-0.4742,-0.4743,-0.4743,0,-0.5113,-0.5071,-0.5048,-0.5034,-0.499,-0.4979,-0.496,-0.4929,-0.4912,-0.4885,-0.4873,-0.4844,-0.4828,-0.4805,-0.4777,-0.4775,-0.4746,-0.4738,-0.4733,-0.4734,-0.4728,-0.4729,-0.4731,-0.4719,-0.4719,-0.4719,-0.4719,0,-0.5115,-0.5099,-0.5056,-0.5042,-0.5022,-0.4992,-0.4973,-0.4951,-0.4924,-0.4904,-0.4879,-0.4862,-0.4826,-0.4803,-0.4781,-0.4757,-0.475,-0.4736,-0.4731,-0.4738,-0.474,-0.4728,-0.4728,-0.4719,-0.4719,-0.4719,-0.4719,0,-0.5134,-0.5105,-0.5078,-0.5038,-0.5027,-0.5014,-0.4979,-0.4964,-0.4941,-0.4917,-0.4909,-0.4873,-0.4845,-0.4815,-0.4777,-0.4762,-0.4738,-0.473,-0.4749,-0.4745,-0.4742,-0.4742,-0.4737,-0.4734,-0.4725,-0.4725,-0.4725,0,-0.5137,-0.5123,-0.5082,-0.5067,-0.5048,-0.5025,-0.5007,-0.4976,-0.4959,-0.4922,-0.4911,-0.4881,-0.4855,-0.4812,-0.4782,-0.4752,-0.4743,-0.4743,-0.4738,-0.4746,-0.4742,-0.4743,-0.4741,-0.4744,-0.4745,-0.4745,-0.4745,0,-0.5145,-0.5131,-0.5107,-0.5077,-0.5057,-0.5032,-0.5006,-0.4995,-0.4959,-0.494,-0.4911,-0.4892,-0.4852,-0.4822,-0.4789,-0.4768,-0.475,-0.4747,-0.4744,-0.4751,-0.4762,-0.4756,-0.4752,-0.4747,-0.4747,-0.4747,-0.4747,-0.4746,-0.5156,-0.5142,-0.511,-0.5083,-0.506,-0.5036,-0.502,-0.4994,-0.497,-0.4936,-0.4919,-0.489,-0.4858,-0.4811,-0.4791,-0.4767,-0.4761,-0.4757,-0.4756,-0.4756,-0.4757,-0.4766,-0.4761,-0.476,-0.476,-0.476,-0.476,0,-0.5162,-0.514,-0.5116,-0.508,-0.5059,-0.5044,-0.5014,-0.4997,-0.4971,-0.4943,-0.4918,-0.4885,-0.4855,-0.4823,-0.4791,-0.4778,-0.4769,-0.4771,-0.4771,-0.4767,-0.4764,-0.477,-0.4779,-0.4779,-0.4779,-0.4779,-0.4779,-0.4779,-0.5163,-0.5138,-0.512,-0.5084,-0.5062,-0.5033,-0.5017,-0.4994,-0.4972,-0.4935,-0.4911,-0.4889,-0.4859,-0.4825,-0.4797,-0.4788,-0.4777,-0.4781,-0.477,-0.4768,-0.4767,-0.4766,-0.477,-0.4779,-0.4779,-0.4774,-0.4774,-0.4774]},{"header":{"parameterUnit":"m.s-1","parameterCategory":1,"la1":30.2991,"la2":30.254,"lo1":-89.0895,"lo2":-89.0444,"dy":0.0017,"dx":0.0017,"nx":28,"ny":28,"refTime":"2024-10-10T03:00:00:Z","depth":0,"parameterNumber":3,"parameterNumberName":"V-component_of_WINDS"},"data":[0,0,0,0,0,0,0,0,0,0,0,0,0,0,0,0,0,0,0,0,0,0,0,0,0,0,0,0,0,0,0,0,0,0,0,0,0,0,0,0,0,0,0,0,0,0,0,0,0,0,0,0,0,0,0,0,0,0,-2.7166,-2.7166,0,-2.7194,-2.7194,-2.7194,-2.7248,-2.7249,-2.725,-2.7251,-2.7277,-2.7277,-2.7276,0,0,0,0,0,0,0,0,0,0,0,0,0,-2.7161,-2.716,-2.7166,-2.7167,-2.7167,-2.7194,-2.7194,-2.7194,-2.7247,-2.7249,-2.725,-2.7251,-2.7277,-2.7277,-2.7276,0,0,0,0,0,0,0,0,0,0,0,0,0,-2.7173,-2.716,-2.7166,-2.7197,-2.72,-2.7194,-2.7194,-2.7195,-2.7247,-2.7249,-2.725,-2.7252,-2.7277,-2.7277,-2.7276,-2.7242,0,0,-2.7275,-2.7275,0,0,0,0,0,0,0,0,-2.7172,-2.7173,-2.7192,-2.7194,-2.7198,-2.7219,-2.7202,-2.721,-2.7247,-2.7229,-2.7251,-2.7253,-2.7256,-2.7258,-2.7259,-2.7243,-2.7244,-2.7275,-2.7275,-2.7274,-2.7274,0,0,0,0,0,0,0,-2.7171,-2.7172,-2.7177,-2.7192,-2.7196,-2.7209,-2.7213,-2.7204,-2.7233,-2.7231,-2.7235,-2.7237,-2.7258,-2.7259,-2.726,-2.7245,-2.7275,-2.7275,-2.7274,-2.7274,-2.7207,-2.7205,0,0,0,0,0,0,-2.7166,-2.7171,-2.7176,-2.7178,-2.7189,-2.7208,-2.7212,-2.721,-2.7234,-2.7239,-2.7236,-2.724,-2.7259,-2.7261,-2.7261,-2.7226,-2.7274,-2.7274,-2.7274,-2.7208,-2.7206,-2.7205,0,0,0,0,0,0,-2.7166,-2.7166,-2.7175,-2.7176,-2.7178,-2.7207,-2.7204,-2.721,-2.7212,-2.7238,-2.7243,-2.7232,-2.7261,-2.7262,-2.7248,-2.7227,-2.7274,-2.7273,-2.721,-2.7208,-2.7206,-2.7152,0,0,0,0,0,0,-2.7165,-2.7165,-2.7152,-2.7175,-2.7178,-2.716,-2.7203,-2.721,-2.7211,-2.7216,-2.7235,-2.724,-2.7262,-2.7248,-2.7247,-2.7227,-2.7273,-2.7212,-2.7209,-2.7206,-2.7155,-2.7148,-2.7141,0,0,0,0,0,-2.7165,-2.7135,-2.7151,-2.7152,-2.7162,-2.7159,-2.716,-2.7187,-2.7209,-2.7197,-2.7214,-2.7239,-2.723,-2.7246,-2.7246,-2.7225,-2.7213,-2.721,-2.7207,-2.7159,-2.7149,-2.7142,0,0,0,0,0,0,-2.7107,-2.7138,-2.7157,-2.7133,-2.7143,-2.7168,-2.7152,-2.7176,-2.7179,-2.7184,-2.7217,-2.722,-2.7202,-2.7212,-2.723,-2.7196,-2.7226,-2.7222,-2.7189,-2.7181,-2.7174,-2.7172,-2.7273,0,0,0,0,0,-2.7092,-2.7087,-2.7114,-2.7091,-2.7095,-2.7123,-2.7123,-2.7143,-2.7154,-2.7159,-2.7175,-2.7185,-2.7185,-2.7183,-2.7184,-2.7158,-2.7164,-2.7144,-2.7137,-2.7131,-2.7127,-2.7117,-2.711,-2.7193,-2.7193,-2.7194,0,0,-2.7059,-2.7076,-2.707,-2.708,-2.709,-2.7085,-2.7126,-2.7118,-2.7115,-2.7157,-2.7145,-2.7158,-2.7172,-2.7152,-2.7144,-2.716,-2.7106,-2.7126,-2.7122,-2.7121,-2.7113,-2.7105,-2.7098,-2.7191,-2.7192,-2.7192,0,0,-2.6998,-2.7009,-2.6993,-2.7003,-2.7019,-2.7039,-2.7035,-2.7057,-2.7067,-2.7056,-2.7089,-2.7086,-2.7084,-2.7093,-2.7098,-2.7045,-2.707,-2.7045,-2.7008,-2.6998,-2.6991,-2.6985,-2.6969,-2.6962,-2.7041,-2.7041,-2.7041,0,-2.6956,-2.695,-2.6981,-2.6972,-2.6976,-2.7016,-2.7001,-2.7009,-2.7024,-2.7026,-2.7044,-2.7045,-2.7056,-2.7041,-2.7029,-2.703,-2.7028,-2.7042,-2.699,-2.6984,-2.6979,-2.6964,-2.6957,-2.7038,-2.7038,-2.7039,-2.7039,0,-2.6898,-2.6894,-2.6878,-2.6894,-2.6896,-2.6884,-2.6914,-2.6913,-2.6934,-2.6952,-2.6942,-2.6959,-2.6965,-2.6963,-2.6982,-2.6951,-2.6961,-2.6984,-2.7015,-2.6968,-2.6954,-2.6948,-2.7034,-2.7035,-2.7036,-2.7036,0,0,-2.6798,-2.6835,-2.6828,-2.6838,-2.686,-2.6857,-2.6848,-2.6856,-2.6856,-2.6865,-2.686,-2.6859,-2.6882,-2.6887,-2.6908,-2.6899,-2.686,-2.6923,-2.6924,-2.6912,-2.683,-2.6813,-2.6806,-2.6876,-2.6875,-2.6874,-2.6829,0,-2.6743,-2.6729,-2.6759,-2.6738,-2.6736,-2.6777,-2.6769,-2.6782,-2.68,-2.6801,-2.6821,-2.6821,-2.6849,-2.6853,-2.6846,-2.6866,-2.6844,-2.6869,-2.6872,-2.6872,-2.6868,-2.6798,-2.678,-2.6736,-2.6824,-2.6823,-2.6822,0,-2.6675,-2.6685,-2.6664,-2.6692,-2.6692,-2.6685,-2.6696,-2.6697,-2.6714,-2.6728,-2.6736,-2.6762,-2.6756,-2.6786,-2.678,-2.6797,-2.68,-2.6811,-2.681,-2.6811,-2.6844,-2.6799,-2.6722,-2.6716,-2.6813,-2.6814,-2.6815,0,-2.6607,-2.6614,-2.6604,-2.6611,-2.6642,-2.6636,-2.6649,-2.6668,-2.6672,-2.6682,-2.6686,-2.6694,-2.6699,-2.6706,-2.6735,-2.6754,-2.6726,-2.6758,-2.6739,-2.6738,-2.673,-2.673,-2.6655,-2.6731,-2.6731,-2.6731,-2.6731,0,-2.6542,-2.6529,-2.6575,-2.6568,-2.6555,-2.659,-2.6577,-2.6593,-2.6611,-2.6609,-2.6644,-2.6642,-2.668,-2.6683,-2.6705,-2.6698,-2.6699,-2.6711,-2.6717,-2.6708,-2.6707,-2.6711,-2.6715,-2.6729,-2.673,-2.673,-2.673,0,-2.6463,-2.6493,-2.6485,-2.6517,-2.6525,-2.6514,-2.6541,-2.6537,-2.6559,-2.6557,-2.6558,-2.6591,-2.6597,-2.6626,-2.6638,-2.6653,-2.6639,-2.665,-2.6633,-2.6637,-2.6617,-2.6619,-2.6541,-2.6534,-2.6613,-2.6613,-2.6612,0,-2.642,-2.6411,-2.6443,-2.6445,-2.6457,-2.646,-2.6465,-2.65,-2.6505,-2.6526,-2.652,-2.6529,-2.6538,-2.6545,-2.657,-2.658,-2.6593,-2.6565,-2.6594,-2.6587,-2.6595,-2.6595,-2.6596,-2.6559,-2.6558,-2.6557,-2.6556,0,-2.6341,-2.6358,-2.6364,-2.6377,-2.6383,-2.6395,-2.6408,-2.6408,-2.6448,-2.6451,-2.6458,-2.6465,-2.6479,-2.6487,-2.6502,-2.6516,-2.6543,-2.6547,-2.6543,-2.6534,-2.6525,-2.6532,-2.6617,-2.6548,-2.6549,-2.655,-2.655,-2.655,-2.628,-2.6275,-2.6298,-2.6305,-2.632,-2.6333,-2.6332,-2.6355,-2.6361,-2.6376,-2.6397,-2.6402,-2.6423,-2.6446,-2.6458,-2.6463,-2.6478,-2.6472,-2.6471,-2.6469,-2.6466,-2.6524,-2.6466,-2.6466,-2.6466,-2.6467,-2.6467,0,-2.6204,-2.6222,-2.6228,-2.6248,-2.6255,-2.6281,-2.6299,-2.6302,-2.6306,-2.6324,-2.6333,-2.6343,-2.6353,-2.638,-2.6393,-2.6392,-2.6405,-2.6394,-2.6395,-2.6399,-2.645,-2.6453,-2.6384,-2.6384,-2.6384,-2.6384,-2.6384,-2.6384,-2.6166,-2.616,-2.618,-2.6183,-2.6201,-2.6207,-2.6215,-2.6228,-2.6243,-2.6253,-2.6262,-2.628,-2.6303,-2.6318,-2.6329,-2.6337,-2.6341,-2.6327,-2.6339,-2.6387,-2.6394,-2.6402,-2.6405,-2.6327,-2.6327,-2.6287,-2.6287,-2.6286]}]]